SACI 1

Satellite information

Favourite Embed

Satellite Type and Status

PAYLOADIN ORBIT

Key statistics

Satellite SACI 1 at a glance.

Uptime

9557

Days in orbit

Revolutions

≈ 14.5

Per day

Orbit

SSO

Sun Synchronous Orbit

Inclination

98.7

Latest

Satellite identification and parameters

Extended collection of information and parameters for SACI 1.

Object identification

Identified? True

Debris? False

Object name: SACI 1

International designator: 1999-057B

Object number (NORAD): 25941

Object ID (CCSDS): 25941

Country: BRAZIL (BRAZ)

Current information (Y/N): Y

RCS size: MEDIUM

Orbital parameters

Period: 98.99 minutes

Inclination: 98.6628 deg

SMA: 7088.481 km

Apoapsis: 716.714 km

Periapsis: 703.979 km

RAAN: 23.208 deg

Eccentricy: 0.00089832

Argument of periapsis: 144.2818 deg

Mean anomaly: 215.898 deg

Mean motion: 14.54698432 rev/day

Mean motion (dot): 0.0000079 rev/day2

B* drag term: 0.00019602861 1/REarth

Two-line elements (TLE)

Creation date: Dec. 12, 2025, 10:14 a.m.

Reference frame: TEME

Reference center: EARTH

Epoch: Dec. 12, 2025, 2:53 a.m. UTC

TLE line 0: 0 SACI 1

TLE line 1: 1 25941U 99057B 25346.12058041 .00000790 00000-0 19603-3 0 9990

TLE line 2: 2 25941 98.6628 23.2080 0008983 144.2818 215.8980 14.54698432385446

Live tracking on map

Real-time ground track for satellite SACI 1.

In-orbit conjunctions

A list of the most updated potential collisions computed for object SACI 1.

Target Orbit TCA Probability of collision Miss distance Type
THORAD AGENA D DEB LEO 2025-11-29 12:28:06 0.0002638639 521.0 (m) DEBRIS
COSMOS 1275 DEB LEO 2025-10-18 16:29:42 0.0005549986 103.0 (m) DEBRIS
CZ-6A DEB LEO 2025-08-27 09:11:08 0.0001232871 920.0 (m) DEBRIS
FENGYUN 1C DEB SSO 2025-05-14 10:10:28 0.0008928368 339.0 (m) DEBRIS
SL-16 DEB LEO 2025-04-12 20:43:41 0.0001300995 215.0 (m) DEBRIS

Associated space launch

The CBERS (China Brazil Earth Resources Satellite) or ZY 1 (Zi Yuan) satellites are designed for global coverage and include cameras to make optical observations and a data collecting system to gather data on the environment. They are unique systems due to the use of on-board sensors which combine features that are especially designed to resolve the broad range of space and time scales involved in the monitoring and preservation of the ecosystem. They are operated jointly by the China Centre for Resources Satellite Data and Application (CRESDA) and the Brazilian INPE (Instituto Nacional de Pesquisas Espaciais, National Institute of Space Research).

SACI 1 was lifted into orbit during the mission ‘Long March 4B | Zi Yuan 1-1’, on board a Long March 4B space rocket.

The launch took place on Oct. 14, 1999, 3:15 a.m. from Launch Complex 7.

For more information about the launch, click the button.

Launch to space Long March 4B | Zi Yuan 1-1
Long March 4B | Zi Yuan 1-1

Agency: N/A

Status: Launch Successful

Launch date: Oct. 14, 1999, 3:15 a.m. UTC

Rocket: Long March 4B

Launch pad: Launch Complex 7

Location: Taiyuan Satellite Launch Center, People's Republic of China

...

Latest news about this satellite

There are no fresh news available about this satellite. Check back as we update our databases every day.


Newsletter sign-up

Weekly statistics, charts and insights to help you stay on top of the space industry.